Location: Lafig�re
(44.4503°N, 4.0357°E)
Time: 14:54:43
(UTC+00:00)

Transit 2A Rocket - Pass Details

Date: 22 January 2021
Orbit: 594 x 908 km, 66.7° (Epoch: 06 March)

Event Time Altitude Azimuth Distance (km) Brightness Sun altitude
Rises 12:19:13 0° 208° (SSW) 3,368 9.4 25.8°
Reaches altitude 10° 12:21:45 10° 207° (SSW) 2,394 9.0 25.7°
Maximum altitude 12:27:15 84° 120° (ESE) 771 5.5 25.6°
Drops below altitude 10° 12:32:17 10° 33° (NNE) 2,195 6.9 25.4°
Sets 12:34:31 0° 33° (NNE) 3,070 7.6 25.4°
